K5LUO Weather Reports


Display with metric or nautical units.
time (UTC)temp
F
wind
direction
speed
MPH
gust
MPH
rain 1hr
in
rain 24hr
in
rain mn
in
humidity
%
barometer
mb
20260506044626 50 355 8.0 16.0 0.00 0.00 0.00 78 1012.3
20260506043052 50 36 10.0 19.0 0.00 0.00 0.00 78 1012.3
20260506041537 50 49 10.0 16.0 0.00 0.00 0.00 78 1012.5
20260506040127 50 15 10.0 18.0 0.00 0.00 0.00 79 1012.4
20260506034607 50 342 6.0 13.0 0.00 0.00 0.00 79 1012.1
20260506033010 50 43 7.0 18.0 0.00 0.00 0.00 78 1012.2
20260506031613 50 16 6.0 16.0 0.00 0.00 0.00 78 1011.8
20260506030042 50 17 13.0 21.0 0.00 0.00 0.00 77 1011.6
20260506024620 50 15 8.0 18.0 0.00 0.00 0.00 77 1010.8
20260506023043 50 343 14.0 22.0 0.00 0.00 0.00 77 1010.9
20260506021633 50 44 8.0 20.0 0.00 0.00 0.00 77 1010.6
20260506020055 51 355 9.0 15.0 0.00 0.00 0.00 77 1010.4
20260506014519 51 17 11.0 22.0 0.00 0.00 0.00 77 1010.4
20260506013111 51 26 13.0 19.0 0.00 0.00 0.00 76 1010.1
20260506011536 52 18 9.0 19.0 0.00 0.00 0.00 75 1009.8
20260506010124 52 22 7.0 19.0 0.00 0.00 0.00 75 1009.3
20260506004551 52 48 9.0 21.0 0.00 0.00 0.00 75 1009.0
20260506003022 52 28 9.0 21.0 0.00 0.00 0.00 75 1008.8
20260506001603 53 355 11.0 20.0 0.00 0.00 0.00 76 1008.8
20260506000024 53 51 12.0 18.0 0.00 0.00 0.00 76 1008.8
20260505234623 53 360 11.0 19.0 0.00 0.00 0.00 75 1008.8
20260505233043 53 19 6.0 18.0 0.00 0.00 0.00 76 1008.6
20260505231502 53 355 8.0 21.0 0.00 0.00 0.00 75 1008.2
20260505230053 54 10 11.0 20.0 0.00 0.00 0.00 75 1008.5
20260505224508 54 347 12.0 21.0 0.00 0.00 0.00 76 1008.4
20260505223100 55 342 11.0 15.0 0.00 0.00 0.00 77 1007.8
20260505221547 54 15 10.0 19.0 0.00 0.00 0.00 77 1007.3
20260505220013 55 19 13.0 25.0 0.00 0.00 0.00 77 1006.8
20260505214613 55 360 13.0 24.0 0.00 0.00 0.00 77 1006.8
20260505213023 55 16 9.0 15.0 0.00 0.00 0.00 80 1006.6
20260505211618 55 337 13.0 23.0 0.00 0.00 0.00 80 1006.9
20260505210035 55 355 14.0 21.0 0.00 0.00 0.00 81 1006.8
20260505204505 56 40 10.0 18.0 0.00 0.00 0.00 81 1006.6
20260505203059 56 9 13.0 25.0 0.00 0.00 0.00 82 1006.5
20260505201521 56 16 14.0 23.0 0.00 0.00 0.00 82 1006.3
20260505200101 56 346 15.0 25.0 0.00 0.00 0.00 81 1006.4
20260505194529 57 18 14.0 26.0 0.00 0.00 0.00 81 1006.0
20260505193132 57 355 15.0 24.0 0.00 0.00 0.00 81 1006.1
20260505191542 58 360 12.0 21.0 0.00 0.00 0.00 81 1004.8
20260505190000 58 327 17.0 23.0 0.00 0.00 0.00 81 1005.5
20260505184603 58 5 12.0 23.0 0.00 0.00 0.00 81 1005.0
20260505183021 58 335 15.0 25.0 0.00 0.00 0.00 80 1004.9
20260505181607 60 9 12.0 26.0 0.00 0.00 0.00 79 1004.3
20260505180034 62 344 12.0 27.0 0.00 0.00 0.00 78 1004.3
20260505174622 65 331 18.0 30.0 0.00 0.00 0.00 75 1004.0
20260505173039 74 346 14.0 24.0 0.00 0.00 0.00 66 1003.3
20260505171506 77 259 4.0 7.0 0.00 0.00 0.00 68 1002.5
20260505170054 77 254 2.0 5.0 0.00 0.00 0.00 68 1002.4
20260505164504 76 259 2.0 7.0 0.00 0.00 0.00 71 1002.2
20260505163054 75 273 4.0 9.0 0.00 0.00 0.00 72 1002.1
20260505161516 74 225 7.0 10.0 0.00 0.00 0.00 72 1002.1
20260505160107 74 205 3.0 8.0 0.00 0.00 0.00 73 1001.7
20260505153114 74 219 5.0 11.0 0.00 0.00 0.00 73 1001.6
20260505151526 74 184 4.0 10.0 0.00 0.00 0.00 74 1001.4
20260505150121 74 203 2.0 6.0 0.00 0.00 0.00 75 1001.3
20260505124625 71 211 5.0 13.0 0.00 0.00 0.00 78 1000.3
20260505123053 71 211 8.0 15.0 0.00 0.00 0.00 79 1000.0
20260505121502 70 198 7.0 14.0 0.00 0.00 0.00 79 999.8
20260505120056 70 192 9.0 18.0 0.00 0.00 0.00 80 999.5
20260505114502 70 173 9.0 20.0 0.00 0.00 0.00 80 998.9
20260505113057 69 190 8.0 14.0 0.00 0.00 0.00 81 998.7
20260505111522 69 171 8.0 15.0 0.00 0.00 0.00 80 999.0
20260505110137 70 186 6.0 13.0 0.00 0.00 0.00 80 999.0
20260505101503 70 201 7.0 14.0 0.00 0.00 0.00 80 998.9
20260505100056 70 182 7.0 15.0 0.00 0.00 0.00 80 999.2
20260505094518 70 175 7.0 16.0 0.00 0.00 0.00 79 999.1
20260505093112 70 184 8.0 16.0 0.00 0.00 0.00 79 999.2
20260505091530 70 188 6.0 15.0 0.00 0.00 0.00 78 999.2
20260505090124 71 173 6.0 15.0 0.00 0.00 0.00 78 999.2
20260505084559 71 181 6.0 12.0 0.00 0.00 0.00 78 999.2
20260505083001 71 185 6.0 15.0 0.00 0.00 0.00 77 999.3
20260505081601 71 198 5.0 18.0 0.00 0.00 0.00 77 999.4
20260505080021 71 200 9.0 23.0 0.00 0.00 0.00 77 999.7
20260505074612 71 211 8.0 21.0 0.00 0.00 0.00 76 999.7
20260505073036 71 177 10.0 22.0 0.00 0.00 0.00 77 1000.0
20260505071616 71 164 7.0 20.0 0.00 0.00 0.00 77 1000.2
20260505070044 71 179 6.0 19.0 0.00 0.00 0.00 76 1000.4
20260505064501 71 169 7.0 21.0 0.00 0.00 0.00 76 1000.4
20260505063100 71 197 6.0 20.0 0.00 0.00 0.00 76 1000.7
20260505061527 71 173 10.0 22.0 0.00 0.00 0.00 75 1000.7
20260505060115 71 185 9.0 19.0 0.00 0.00 0.00 75 1001.2